Location: *
(50.6089°N, 2.2719°E)
Time: 02:07:46
(UTC+00:00)

COSMO-SKYMED 1 - Pass Details

Date: 18 October 2019
Orbit: 621 x 623 km, 97.9° (Epoch: 16 November)

Event Time Altitude Azimuth Distance (km) Brightness Sun altitude
Rises 17:31:01 0° 19° (NNE) 2,916 5.7 -6.7°
Reaches altitude 10° 17:33:21 10° 28° (NNE) 2,004 4.9 -7.0°
Maximum altitude 17:37:27 39° 97° (E) 940 3.0 -7.7°
Drops below altitude 10° 17:41:30 10° 167° (SSE) 1,988 5.1 -8.3°
Sets 17:43:48 0° 175° (S) 2,889 6.0 -8.7°
